Home > Weather > Dallas > Past weeks

Flag for U.S.A. Weather for the Past 2 Weeks in Dallas, Texas, U.S.A.

Now
57 °F

Sunny.


Feels Like: 55 °F
Forecast: 33 / 70 °F
Wind: 9 mph from Southwest

Location: Dallas Love Field

Current Time: Feb 10, 2016 at 12:22:13 PM

Latest Report: Feb 10, 2016 at 11:53 AM


Visibility: 10 mi

Pressure: 30.28 "Hg

Humidity: 32%

Dew point: 27 °F

Location of DallasLocation

Historic Weather in Dallas — Graph

°F

Dallas Temperature Yesterday

Maximum temperature yesterday: 62 °F (at 2:53 PM)
Minimum temperature yesterday: 35 °F (at 6:53 AM)
Average temperature yesterday: 49 °F

High & Low Weather Summary for the Past Weeks

 TemperatureHumidityPressure
High76 °F (Jan 29, 2:53 PM)90% (Feb 6, 6:53 AM)30.51 "Hg (Feb 6, 6:53 AM)
Low32 °F (Jan 27, 7:53 AM)13% (Feb 8, 4:53 PM)29.51 "Hg (Feb 1, 5:53 PM)
Average51 °F48%30.11 "Hg
* Reported Jan 26 10:53 AM — Feb 10 10:53 AM, Dallas, Weather by CustomWeather, © 2016

Note: Actual official high and low records may vary slightly from our data, if they occured in-between our weather recording intervals... More about our weather records

Advertising

Dallas Weather History for the Previous 24 Hours

 ConditionsComfort  
Time TempWeatherWind HumidityBarometerVisibility
10:53 AM
Wed, Feb 10
53 °FSunny.9 mph35%30.32 "Hg10 mi
9:53 AM49 °FSunny.5 mph39%30.34 "Hg10 mi
8:53 AM44 °FSunny.7 mph45%30.34 "Hg10 mi
7:53 AM40 °FSunny.6 mph58%30.33 "Hg10 mi
6:53 AM38 °FClear.No wind68%30.33 "Hg10 mi
5:53 AM36 °FClear.No wind73%30.33 "Hg10 mi
4:53 AM36 °FClear.No wind73%30.33 "Hg10 mi
3:53 AM37 °FClear.3 mph70%30.33 "Hg10 mi
2:53 AM38 °FClear.No wind65%30.33 "Hg10 mi
1:53 AM42 °FClear.3 mph51%30.33 "Hg10 mi
12:53 AM43 °FClear.No wind47%30.32 "Hg10 mi
11:53 PM
Tue, Feb 9
45 °FPassing clouds.3 mph42%30.33 "Hg10 mi
10:53 PM46 °FClear.6 mph42%30.32 "Hg10 mi
9:53 PM49 °FPassing clouds.8 mph36%30.29 "Hg10 mi
8:53 PM51 °FPassing clouds.13 mph33%30.29 "Hg10 mi
7:53 PM53 °FPassing clouds.8 mph34%30.28 "Hg10 mi
6:53 PM55 °FPassing clouds.12 mph31%30.27 "Hg10 mi
5:53 PM58 °FPassing clouds.16 mph28%30.25 "Hg10 mi
4:53 PM61 °FPassing clouds.21 mph25%30.23 "Hg10 mi
3:53 PM62 °FPassing clouds.15 mph24%30.22 "Hg10 mi
2:53 PM62 °FSunny.16 mph24%30.22 "Hg10 mi
1:53 PM60 °FSunny.8 mph25%30.22 "Hg10 mi
12:53 PM58 °FSunny.7 mph25%30.26 "Hg10 mi
Weather by CustomWeather, © 2016

See weather overviewHow to use our weather pages